Wind_Speed
24 24 25 25 26 26 26 26 26 25 25 25 25 24 22 21 20 19 19 19 20 21 22 22 23 23 23 24 24 24 25 26 27 27 27 28 29 31 33 35 36 37 38 39 39 39 38 38 38 38 39 40 41 41 42 43 44 46 48 50 51 52 51 50 49 48 47 46 47 47 47 46 45 44 43 41 41 42 43 45 47 49 51 52 53
24 25 25 26 27 27 27 27 27 26 25 25 25 24 23 22 21 20 19 20 21 22 23 23 23 24 24 25 26 26 27 27 27 28 28 29 31 33 34 35 36 37 38 39 39 38 38 39 39 39 40 40 41 42 42 43 45 47 48 50 51 52 51 50 48 47 46 46 47 47 46 45 44 43 41 40 41 42 43 45 48 50 51 52 53
25 25 26 27 27 27 27 27 27 26 25 25 24 23 22 22 21 21 21 22 22 23 24 24 25 25 26 27 28 28 28 29 29 29 30 31 32 33 34 35 36 37 37 37 38 38 38 39 39 39 40 41 42 43 43 44 45 47 49 51 52 52 51 49 47 45 45 46 46 46 45 44 42 41 40 40 41 42 44 46 48 50 51 52 53
25 26 27 27 27 27 27 27 27 26 24 24 22 21 21 22 22 22 22 23 23 24 25 26 26 27 28 29 29 29 30 30 31 31 32 32 33 34 35 35 36 36 36 37 37 38 38 38 39 40 41 42 43 43 43 44 46 47 50 51 52 52 51 48 45 44 45 45 45 45 44 43 41 39 39 40 41 42 44 46 48 50 52 53 53
26 26 27 28 27 27 27 27 27 25 24 24 22 21 22 23 23 24 24 24 25 25 26 27 28 29 29 30 31 31 32 33 33 33 34 34 34 35 35 36 35 35 36 36 37 37 37 38 39 40 41 42 43 43 44 45 46 48 50 52 52 52 49 45 43 44 44 44 44 43 42 41 39 38 39 39 40 42 44 46 48 50 52 53 53
26 27 28 28 27 27 26 26 26 25 24 24 23 23 23 24 25 26 26 26 26 27 28 29 30 30 30 31 32 33 34 34 35 35 36 36 36 36 36 36 35 35 36 37 37 37 37 38 39 40 42 43 43 44 44 44 45 48 50 52 52 50 46 42 42 43 44 43 42 41 40 39 38 38 39 39 41 42 44 46 49 51 52 52 53
26 27 28 27 27 27 26 26 26 24 24 24 24 25 25 25 27 27 28 28 28 29 29 30 31 31 32 33 34 35 36 37 37 37 37 37 36 36 36 36 35 36 36 37 36 36 37 38 40 41 42 43 43 44 44 44 45 48 50 51 50 46 42 41 42 42 42 41 41 40 39 38 38 38 39 40 42 44 45 47 49 51 52 53 52
27 27 27 27 26 26 25 26 25 23 23 23 23 24 25 26 27 29 30 30 29 30 30 31 32 32 33 34 35 36 36 37 38 38 37 37 36 36 36 36 36 36 37 36 36 37 38 39 40 42 43 44 45 46 44 43 45 47 49 49 46 42 39 40 41 41 40 40 39 39 38 38 38 38 39 40 42 44 46 48 50 50 51 52 53
27 26 26 26 26 26 26 25 24 23 23 22 21 23 24 25 27 28 29 29 29 30 30 31 33 33 34 35 35 36 37 39 40 39 38 37 36 36 36 35 36 36 36 36 36 37 38 39 40 42 44 44 43 42 40 41 44 46 47 45 41 38 38 39 40 39 39 38 38 37 37 38 39 39 39 41 42 45 47 49 51 51 51 51 53
25 25 25 25 25 25 26 25 24 23 22 21 21 22 24 25 26 27 27 28 29 30 31 32 34 34 34 34 34 35 36 37 38 35 34 33 34 35 35 35 35 36 36 36 36 37 38 38 39 40 41 39 38 38 39 41 43 45 44 41 38 37 37 38 38 38 37 37 37 37 37 38 39 40 40 41 43 46 48 50 51 51 51 51 52
24 24 24 24 25 25 25 25 25 24 22 22 22 24 26 26 26 26 27 28 30 29 30 32 33 34 34 33 34 36 36 34 31 29 29 30 31 33 33 34 34 35 35 35 36 37 37 38 38 38 38 38 38 39 40 42 43 43 42 38 36 36 37 37 38 37 37 37 37 37 37 38 40 40 41 42 44 46 49 51 52 52 52 52 52
24 23 22 22 23 24 24 25 25 24 24 24 24 26 27 27 27 27 28 29 30 29 30 32 33 34 34 34 35 36 34 33 32 31 30 30 31 32 32 33 34 34 35 35 35 36 38 38 37 37 38 39 39 40 41 43 44 43 40 37 35 36 37 38 38 37 37 36 36 37 38 39 40 41 42 42 44 46 49 51 52 53 53 54 53
24 23 21 21 21 22 24 25 25 25 25 26 27 27 28 28 28 28 28 28 29 30 31 32 33 34 34 34 34 34 33 34 33 33 32 32 32 32 33 33 34 34 34 34 35 36 37 37 36 37 38 39 39 40 42 43 43 41 38 35 34 35 36 37 37 37 36 36 36 37 38 39 41 42 42 43 44 47 50 51 52 53 54 54 54
25 23 22 21 22 23 24 25 25 26 27 28 29 28 28 29 29 28 27 28 28 29 31 32 32 33 33 33 34 35 35 35 34 34 34 33 33 32 33 33 33 33 34 34 35 36 36 36 36 36 38 38 39 40 42 43 42 39 36 34 34 35 36 37 37 36 36 36 36 37 39 40 41 42 43 44 46 49 50 51 52 53 53 53 54
26 23 22 23 23 25 26 27 27 27 28 29 28 28 28 27 27 27 27 27 28 29 30 31 31 31 31 32 33 34 34 34 34 34 34 33 33 32 33 33 33 33 34 35 36 36 36 35 35 36 38 39 40 40 41 42 41 37 34 33 34 35 36 36 36 36 36 37 38 39 40 41 42 43 44 46 48 49 50 51 52 53 53 53 54
25 24 24 25 26 27 27 27 27 27 28 28 27 26 26 25 26 27 26 26 27 29 29 30 30 30 31 32 33 33 33 33 34 34 34 33 33 33 33 33 34 34 35 35 35 35 34 34 34 36 38 39 39 40 41 41 39 35 33 32 33 35 35 35 35 36 36 37 39 40 41 42 43 45 45 46 48 48 49 50 52 53 54 53 53
25 26 26 26 27 27 26 26 25 26 26 26 25 25 25 25 25 26 26 26 27 28 29 30 30 31 32 33 33 33 33 34 35 35 33 33 33 33 33 34 34 35 35 35 35 34 33 33 35 37 38 38 39 40 41 39 36 33 31 31 32 33 33 33 34 35 36 37 39 40 42 43 44 44 45 46 47 48 48 50 52 53 53 53 53
26 27 26 26 26 25 24 24 24 25 25 26 25 25 26 26 26 27 27 27 28 29 30 31 31 32 34 35 35 34 34 36 36 35 33 33 33 34 34 34 35 35 35 34 33 32 32 34 36 37 37 38 39 40 40 37 33 30 29 30 31 32 32 32 33 34 36 37 39 40 41 42 42 43 44 45 47 48 49 51 52 53 53 53 53
25 26 25 25 24 24 24 24 24 25 26 26 26 27 27 27 27 27 28 29 30 30 30 32 33 34 35 35 35 35 35 36 36 34 33 33 34 34 34 35 34 34 33 33 32 32 32 35 36 37 37 38 39 39 38 34 30 28 28 29 29 30 30 31 32 34 35 37 39 40 40 41 41 42 44 46 47 47 49 51 53 53 53 52 52
24 24 23 24 24 24 24 24 25 26 26 27 27 28 28 28 29 30 31 31 31 30 30 33 34 34 34 35 35 35 35 36 34 33 33 34 34 34 34 34 33 33 33 33 32 32 34 35 36 36 37 38 39 38 35 30 27 27 27 27 28 29 29 30 32 34 35 37 38 40 40 41 42 43 44 45 46 46 48 50 52 52 52 51 51
22 23 23 24 25 25 26 26 27 27 27 28 29 30 31 31 31 32 33 33 32 32 33 34 35 34 35 35 35 35 35 34 32 32 33 34 34 34 33 33 33 33 34 33 33 33 34 35 36 37 37 38 38 36 31 27 25 25 26 27 28 28 29 30 32 33 35 37 39 40 40 41 42 43 43 44 45 46 47 49 50 51 51 51 51
23 24 25 26 27 28 29 30 31 31 30 31 32 33 33 34 34 34 35 35 35 34 35 35 35 35 35 34 34 35 34 32 32 34 35 34 34 34 33 33 33 34 34 33 33 33 34 35 36 37 38 38 37 33 27 24 24 24 25 26 27 28 29 30 32 33 35 37 38 39 40 41 42 42 43 44 45 45 46 47 48 49 50 50 51
23 24 26 27 28 30 32 33 34 35 35 35 36 36 36 36 36 36 36 36 35 34 35 36 36 35 34 33 33 33 33 33 35 36 35 34 34 34 33 33 33 34 34 33 32 33 34 35 36 37 39 38 35 30 24 22 23 24 25 26 26 27 28 29 31 32 34 36 38 39 40 41 41 42 43 44 44 44 46 47 47 47 48 48 50
24 25 26 28 30 31 33 34 35 36 37 37 37 37 38 38 37 36 34 34 34 34 35 36 35 34 33 33 32 32 32 34 35 35 34 34 34 34 34 34 34 35 35 33 32 33 34 35 36 39 39 37 32 26 22 21 22 23 24 25 26 27 28 29 30 32 34 36 37 39 40 41 41 42 42 43 44 45 46 47 46 45 45 46 48
27 28 29 30 31 33 34 35 36 37 38 38 38 38 38 38 37 35 33 33 34 36 36 35 34 33 33 32 31 31 32 33 34 34 34 34 34 34 34 34 35 35 35 33 32 32 33 35 37 39 38 34 29 24 21 21 22 23 24 25 25 26 27 28 30 32 33 35 37 38 40 41 41 42 42 43 44 45 45 45 44 43 43 44 46
30 31 31 32 33 34 35 36 37 37 38 38 37 37 37 37 35 34 34 34 34 35 35 34 33 33 32 31 31 31 32 32 33 33 33 34 34 34 34 34 35 35 34 32 30 31 33 35 36 36 35 32 28 23 20 20 22 23 23 24 24 25 27 28 29 31 32 34 36 38 39 40 41 42 42 42 43 44 45 44 43 42 42 42 43
32 33 34 35 36 37 37 37 37 38 38 37 36 35 35 35 34 33 33 33 33 34 34 33 32 32 31 31 31 31 32 32 33 33 33 34 34 34 34 34 34 34 32 31 30 31 32 33 33 33 32 30 26 22 19 20 22 23 23 23 23 24 26 27 28 30 32 34 36 37 38 39 40 41 41 42 42 43 44 43 42 41 41 41 42
34 35 36 37 37 38 38 37 37 37 37 36 35 34 34 34 33 33 32 32 32 33 33 32 32 32 31 31 31 32 32 33 33 33 34 34 34 34 34 33 33 32 32 31 30 31 32 31 31 31 31 29 25 21 20 21 22 23 22 23 23 24 26 27 28 29 31 33 35 37 38 39 39 40 41 41 42 42 43 42 41 41 41 41 41
36 36 37 38 38 37 36 36 35 36 36 35 35 34 34 33 33 32 32 32 33 33 32 32 32 32 31 31 32 32 33 33 33 34 35 35 35 34 33 33 32 32 31 30 32 33 31 30 29 30 30 27 24 21 20 21 22 23 22 22 23 24 25 26 27 29 30 32 34 36 37 38 39 39 39 40 41 41 41 41 40 40 40 41 41
36 37 37 36 35 35 35 34 35 35 36 36 35 33 33 33 33 32 32 32 32 32 32 32 32 32 32 32 33 33 33 33 34 35 36 35 35 34 33 32 32 31 30 30 31 32 30 29 29 29 29 27 23 21 21 21 22 23 22 22 22 23 25 26 27 28 29 31 33 35 36 37 38 38 38 39 40 40 40 40 40 40 40 40 41
36 36 35 34 32 32 31 32 33 33 33 33 33 32 33 33 32 32 31 31 32 32 32 32 32 32 33 33 33 33 34 35 35 36 36 36 35 34 33 32 32 31 29 28 28 29 28 28 29 30 30 27 23 21 21 22 22 22 22 22 22 23 24 25 26 27 29 30 32 33 35 36 36 37 37 38 39 39 40 40 39 39 39 40 40
35 35 34 33 33 32 30 30 31 31 31 31 31 32 33 32 31 31 31 31 32 32 32 32 32 33 34 34 34 34 35 35 36 37 37 36 34 34 33 32 31 31 28 26 26 28 27 28 30 32 32 27 23 21 21 22 22 22 22 22 22 23 24 24 25 27 28 30 31 33 34 35 36 36 36 37 38 39 39 39 38 37 38 39 39
34 34 33 33 33 32 31 30 30 30 31 31 31 31 31 31 31 30 31 31 32 32 32 33 33 34 35 35 34 35 35 36 36 36 36 34 33 32 32 31 31 31 30 28 28 28 27 28 32 35 33 27 22 21 21 22 23 23 23 23 23 23 24 24 25 27 28 29 31 32 33 35 35 36 36 37 37 38 39 39 38 37 37 37 38
34 34 34 33 33 32 31 30 30 31 31 31 31 31 30 30 30 30 31 31 32 32 33 33 34 35 36 35 35 35 36 35 34 34 34 33 32 31 31 31 31 32 32 30 28 27 28 32 35 36 33 27 22 21 21 22 23 23 23 23 23 24 24 24 25 27 28 29 31 32 33 34 35 36 37 37 37 37 37 38 38 37 36 36 37
34 35 35 34 33 32 31 31 31 31 30 30 30 30 30 30 30 30 31 32 33 33 33 34 35 35 36 36 34 34 35 35 35 34 33 33 32 32 31 32 32 32 32 30 28 29 33 35 35 34 32 26 22 21 21 22 24 24 24 24 24 24 24 24 25 26 28 29 30 32 33 33 34 34 35 35 35 36 36 37 38 37 35 35 36
36 36 36 35 33 32 32 31 31 31 30 30 30 30 30 30 30 31 32 33 34 34 34 34 35 35 35 35 34 35 36 36 35 35 34 34 34 34 34 33 33 32 32 31 30 32 34 33 32 32 30 26 22 21 21 22 24 25 25 24 25 25 24 25 25 26 27 29 31 32 32 33 33 33 34 34 34 35 36 37 37 37 35 35 35
37 37 36 35 33 33 33 32 31 31 30 30 29 29 30 30 31 32 33 33 33 34 34 34 34 35 35 35 35 36 37 37 37 36 35 35 36 35 35 35 34 33 33 31 31 32 33 31 30 31 29 25 23 21 21 22 24 25 25 25 25 25 25 25 25 26 27 29 30 31 32 32 33 33 34 34 34 34 35 36 36 36 35 34 34
37 37 35 34 33 33 32 31 30 29 29 29 29 29 30 31 31 32 32 33 33 33 33 33 34 34 35 36 37 37 37 37 37 36 35 35 36 36 36 36 35 34 33 31 32 33 33 31 30 30 27 24 23 21 21 22 24 25 25 25 25 25 25 25 25 26 27 28 30 31 32 32 33 33 34 34 34 34 34 34 35 35 35 34 33
36 35 34 33 32 32 31 30 29 29 28 29 29 29 30 31 31 32 32 32 32 32 33 34 35 35 36 37 37 36 36 36 35 34 34 34 35 36 37 36 35 34 33 33 34 35 34 31 30 29 27 24 23 22 22 22 24 25 25 25 25 26 26 25 25 26 27 29 30 31 32 33 33 33 33 33 33 33 33 33 34 35 34 33 32
33 32 32 31 31 30 30 29 28 28 28 28 29 30 30 31 31 31 31 31 31 33 34 35 35 34 35 36 36 35 35 35 34 33 35 36 36 37 37 36 34 34 33 34 36 36 34 31 30 29 27 25 23 22 22 23 24 25 25 25 26 26 26 26 26 26 27 29 30 31 33 33 33 33 33 33 33 33 33 33 33 34 34 33 32
30 30 30 30 30 30 29 28 27 27 28 29 30 30 30 30 30 30 31 31 32 33 34 35 35 35 36 37 36 36 37 37 36 37 38 38 37 38 38 37 37 38 37 36 36 37 35 33 30 28 26 25 24 23 23 23 24 25 25 26 26 26 27 27 26 26 27 29 30 31 32 33 33 33 33 33 33 33 32 32 33 33 34 34 32
31 31 31 30 29 28 27 26 26 27 28 28 28 28 27 28 29 30 31 32 33 33 35 37 38 39 38 38 37 39 40 40 41 41 40 38 37 37 38 38 40 41 40 39 38 38 37 35 31 27 26 26 25 24 24 24 24 25 25 26 26 26 27 28 27 27 28 29 30 31 31 32 33 33 33 32 32 32 32 32 32 33 33 34 33
32 32 31 30 29 28 27 27 28 27 26 26 26 26 27 29 31 32 33 34 35 36 38 40 40 40 40 40 41 43 43 43 42 41 39 38 37 37 37 38 38 39 41 41 39 39 38 36 32 28 27 26 25 25 24 24 25 25 26 26 26 27 27 28 28 28 29 30 31 32 32 32 33 33 32 32 32 31 31 32 32 32 33 33 33
33 32 31 30 29 29 29 29 29 29 29 29 29 30 31 33 33 34 35 36 37 39 40 40 41 41 40 40 41 42 42 40 38 37 37 37 37 37 36 35 35 35 36 37 37 37 36 35 31 28 27 26 26 25 25 25 25 26 26 26 27 27 28 28 28 28 29 31 32 32 32 33 33 33 33 32 32 31 31 30 31 31 32 32 32
32 32 31 31 31 31 31 31 31 31 31 32 32 33 33 34 34 35 36 37 38 39 39 39 38 38 38 38 38 38 37 35 34 34 35 36 36 37 36 34 33 34 35 36 36 37 36 34 31 28 27 27 26 25 25 25 25 26 27 27 27 28 29 29 28 28 29 31 32 32 33 33 33 33 33 33 33 32 32 32 32 32 32 32 32
30 31 31 31 32 32 32 31 31 31 32 33 33 34 34 36 37 37 36 35 35 35 35 35 36 36 37 37 36 36 35 33 32 32 33 33 33 33 33 32 32 33 34 34 34 34 34 32 30 28 28 27 27 25 25 25 26 26 27 28 28 29 29 29 29 29 29 30 32 32 33 34 34 33 32 32 32 32 32 32 32 32 33 33 33
30 31 31 32 33 33 32 32 32 32 33 34 34 35 36 36 36 34 32 30 30 31 32 33 34 35 36 37 36 35 34 32 31 31 31 31 30 28 28 30 31 31 31 31 31 31 30 30 29 29 28 27 26 25 25 25 26 27 28 28 29 29 30 30 30 30 30 31 31 32 33 34 34 33 33 32 32 32 32 32 32 32 32 33 33
31 31 31 32 32 33 33 33 33 34 35 35 36 36 34 32 31 30 30 30 29 30 31 32 32 33 35 36 35 33 32 31 30 30 30 31 30 29 29 30 30 29 28 27 27 28 28 29 29 29 28 27 26 25 25 25 26 27 28 29 30 30 30 31 31 31 31 31 31 32 32 33 33 33 33 33 32 32 32 32 32 32 33 33 33
32 32 32 33 34 34 35 35 35 35 35 35 33 32 29 27 27 29 30 29 29 30 31 31 31 31 32 33 32 30 29 29 29 29 29 30 31 31 31 30 29 29 28 27 26 25 26 27 28 28 28 27 26 25 25 25 27 28 29 30 30 30 30 31 32 32 32 32 32 33 33 34 34 33 33 33 33 33 33 33 33 33 33 34 33
34 34 34 34 34 34 35 36 35 34 33 31 29 28 27 26 26 27 27 27 28 30 30 31 31 31 31 30 29 28 27 27 28 28 28 29 29 30 31 31 31 30 30 29 28 27 27 27 27 28 28 27 26 25 25 26 27 28 29 30 30 30 31 31 32 32 33 33 33 34 34 35 34 33 33 33 33 33 33 33 33 34 34 34 33
33 33 33 33 32 32 33 33 32 31 30 28 27 28 28 27 26 26 27 27 28 29 30 30 30 30 29 28 26 25 24 25 26 27 28 29 30 31 32 33 31 30 30 30 30 30 30 29 29 29 28 27 26 26 27 27 28 29 30 31 31 31 31 32 32 33 33 34 34 35 36 35 34 33 33 34 34 34 33 33 34 34 34 34 33
Wind_Direction
268 263 259 258 259 261 263 264 265 264 262 262 262 261 258 257 258 258 261 265 267 268 269 270 271 272 274 276 278 278 278 278 279 280 283 286 290 292 293 294 296 298 299 301 303 305 307 308 309 309 309 309 308 308 309 310 312 312 313 313 315 317 318 319 317 316 318 319 320 321 321 320 320 320 321 322 322 322 321 322 322 323 323 323 324
265 261 257 256 258 260 263 265 266 266 264 263 263 260 256 254 256 257 261 264 266 268 270 270 272 273 275 277 278 277 277 277 279 281 285 288 291 294 295 296 297 298 300 301 303 305 307 307 308 308 308 307 306 307 308 310 311 312 312 312 314 316 318 318 317 317 318 320 321 321 321 321 321 322 323 323 322 322 322 323 323 323 324 324 324
262 260 257 257 259 261 263 265 266 266 265 264 263 257 252 253 255 257 260 264 267 270 272 273 274 275 277 278 278 278 278 279 281 283 286 289 293 295 296 297 298 299 300 301 303 305 306 306 307 307 306 305 305 306 308 309 310 311 311 312 314 316 317 317 316 317 319 320 321 321 321 321 322 323 324 323 323 323 324 324 324 324 325 325 326
260 259 257 257 258 260 262 265 266 266 265 263 259 254 252 254 256 257 260 264 270 274 275 276 276 277 278 279 280 280 280 280 282 284 286 290 293 295 296 298 299 300 300 301 303 304 305 306 306 306 305 305 305 306 308 309 310 310 311 312 314 316 317 316 316 318 321 321 321 322 322 322 323 324 325 324 324 324 324 325 325 326 326 326 327
259 258 257 257 257 259 262 265 267 266 263 260 256 253 254 256 257 259 261 266 271 275 275 275 276 276 278 280 280 281 281 281 282 284 287 290 292 294 297 299 300 300 300 301 303 303 305 306 306 305 305 305 305 306 307 308 309 309 310 312 314 316 315 315 318 321 322 322 322 322 322 322 325 326 325 324 324 324 325 326 326 327 327 327 327
256 256 257 256 256 258 261 265 267 265 261 258 256 255 257 258 259 260 263 267 271 273 273 274 275 276 278 280 280 280 281 281 283 285 287 289 291 294 297 299 299 300 300 301 302 303 305 305 305 305 305 305 305 306 307 307 308 309 311 312 314 315 315 317 321 323 323 323 323 322 322 324 327 327 326 325 325 325 326 327 327 328 328 328 329
254 255 255 254 255 257 261 264 265 264 261 258 257 258 259 260 261 263 264 266 269 270 271 272 274 276 278 279 279 280 281 282 282 284 286 287 290 293 296 298 298 299 299 300 302 303 304 305 305 305 305 305 306 305 305 305 307 309 311 312 314 314 316 320 323 323 323 323 322 322 324 327 328 328 327 327 327 326 327 328 329 329 329 329 331
251 252 253 253 254 256 259 262 264 263 260 259 260 260 261 262 264 264 265 266 268 270 272 273 275 277 278 279 281 282 282 282 282 282 284 286 289 292 295 297 297 298 299 300 302 303 304 304 304 305 306 306 305 305 305 305 307 309 311 313 314 315 318 322 323 323 323 323 323 324 327 328 329 329 329 328 328 327 328 330 331 331 330 331 334
249 251 251 252 253 254 257 260 261 260 259 260 261 261 262 264 264 265 266 268 271 273 275 277 277 279 280 281 282 283 283 282 281 282 284 286 288 291 294 296 297 299 300 301 302 304 305 305 305 306 308 307 307 308 309 309 309 310 312 314 315 317 320 323 323 323 323 323 324 326 329 330 330 330 330 329 329 329 330 331 331 332 332 334 337
247 248 249 250 250 252 255 257 258 258 260 262 263 263 265 265 265 267 268 270 271 274 278 280 280 281 283 284 286 289 292 290 287 287 287 287 288 291 295 298 299 300 300 300 302 304 306 306 307 309 311 310 312 313 313 312 312 314 315 317 317 318 322 323 322 324 324 324 325 329 332 332 331 331 331 331 330 330 331 332 332 333 334 336 338
243 245 246 247 248 250 252 254 256 258 260 262 264 266 267 266 267 268 269 269 271 275 279 281 283 284 286 288 290 294 297 299 298 298 295 293 293 295 298 299 298 298 299 300 302 304 306 306 307 309 311 313 315 315 314 315 316 317 318 317 317 320 322 323 323 325 324 325 329 332 333 333 332 332 332 332 332 331 331 333 334 335 337 338 339
243 245 246 247 247 248 249 251 254 257 260 262 264 266 268 269 269 270 272 274 274 275 278 281 284 285 287 290 293 294 295 297 301 304 302 300 299 299 299 298 298 298 299 301 303 305 307 307 306 308 310 313 314 314 315 316 317 318 318 317 318 321 323 324 324 325 325 328 332 333 334 334 333 333 333 332 332 332 333 335 336 337 338 338 338
244 246 247 248 247 247 248 251 254 257 260 262 263 265 268 270 270 271 274 276 275 274 276 279 282 284 286 288 292 295 296 299 303 304 303 302 302 300 299 299 299 300 300 302 305 307 307 306 306 308 310 311 313 314 316 317 318 318 317 317 320 322 323 324 325 325 326 330 334 335 335 335 334 333 333 333 333 334 335 336 336 338 338 338 339
248 248 248 248 249 249 250 252 254 256 258 260 263 265 268 271 272 273 274 275 275 275 276 278 280 282 284 286 289 292 296 300 301 301 301 302 301 301 300 300 300 300 301 304 307 307 306 305 306 308 309 311 313 314 316 317 318 318 316 317 321 323 323 324 325 326 328 333 336 336 336 336 335 334 334 335 336 336 336 336 337 338 338 339 342
249 248 248 247 247 248 250 253 254 256 258 261 264 267 268 271 274 275 276 277 277 278 278 279 281 283 285 286 289 292 295 297 298 299 301 302 302 302 301 301 301 302 304 307 307 306 305 305 307 308 309 312 313 315 317 318 318 317 316 319 323 324 324 325 326 328 331 335 337 337 337 336 336 336 337 337 337 337 336 336 337 338 340 342 344
247 246 245 245 246 248 251 254 255 257 259 262 265 267 270 273 276 278 279 279 280 281 282 282 284 286 288 290 292 294 296 297 299 301 303 303 303 303 302 301 302 305 307 308 306 305 305 305 306 308 310 312 314 316 317 318 317 316 317 321 324 324 325 327 328 330 333 336 337 337 337 337 337 338 337 337 337 336 336 336 337 338 341 344 345
244 244 244 246 248 249 252 254 256 257 260 263 266 269 272 274 277 279 280 281 282 284 285 287 288 289 291 293 295 296 297 299 301 303 303 303 302 302 302 303 305 307 308 307 305 304 304 305 307 308 310 312 315 317 317 317 316 316 318 322 324 325 326 328 328 330 333 335 336 336 337 337 337 337 336 336 336 336 336 337 338 340 343 344 345
243 244 245 246 247 249 250 252 255 258 260 264 267 270 273 276 279 281 283 284 285 287 288 289 290 291 293 295 297 298 299 300 301 302 302 302 302 302 303 305 307 308 308 306 304 302 303 305 307 309 311 313 315 316 317 316 315 316 319 322 324 325 326 327 328 330 332 334 336 336 335 334 334 335 336 336 337 337 337 338 339 342 344 345 345
243 243 243 244 246 249 251 254 257 260 263 267 271 274 277 280 283 284 285 285 287 289 291 291 290 291 294 296 297 298 300 300 300 300 301 302 302 303 305 307 308 308 307 305 303 301 301 305 308 310 311 312 314 315 316 315 314 316 319 321 323 323 323 325 327 329 332 334 335 334 333 333 336 338 338 338 338 339 339 339 341 343 344 345 346
242 243 244 246 248 251 254 258 261 265 269 273 276 279 282 284 284 284 285 286 288 289 288 287 287 290 293 295 296 298 300 299 298 298 300 302 303 304 307 308 308 308 307 305 302 300 301 305 308 310 311 311 312 313 314 313 314 316 318 320 321 320 321 324 326 329 332 334 333 332 333 336 339 339 339 339 339 340 341 342 343 343 343 346 348
247 249 250 250 252 254 257 260 264 268 273 276 279 282 285 286 285 285 286 287 287 286 284 283 284 288 292 294 295 297 299 297 295 297 301 302 303 306 307 308 308 308 306 304 302 301 302 305 308 310 311 311 311 311 312 312 313 315 317 318 317 318 321 324 326 329 333 333 331 332 335 338 339 339 340 340 341 342 344 343 342 342 344 346 348
252 254 255 257 258 260 261 264 266 269 274 278 281 284 287 287 286 285 285 285 284 284 282 283 285 287 292 294 294 296 296 293 293 298 301 303 305 306 307 307 308 307 305 303 302 301 302 305 307 310 311 310 309 310 311 311 311 313 315 315 315 317 321 323 326 330 331 330 331 334 337 338 339 340 341 342 343 344 344 342 343 344 346 347 349
255 258 261 263 264 265 266 268 269 271 274 278 281 285 287 286 284 283 283 282 281 280 279 281 284 287 290 291 292 293 291 289 293 298 301 303 305 306 306 307 307 306 304 303 302 301 302 305 307 310 310 309 308 309 309 309 309 310 312 312 314 317 320 323 327 329 329 330 332 335 336 337 339 341 342 343 344 344 343 343 346 347 347 348 350
260 264 267 268 269 269 270 271 272 274 277 279 283 285 285 284 282 281 280 278 277 277 277 280 283 286 288 289 289 290 288 288 293 297 300 303 305 305 306 306 306 305 302 300 298 299 301 304 308 310 309 307 307 308 307 305 305 307 309 310 312 315 320 324 326 327 328 331 333 334 336 337 340 342 343 343 344 344 344 346 348 348 348 349 351
265 268 270 272 273 273 274 274 276 278 279 281 283 283 282 282 281 279 276 274 274 275 278 281 283 285 286 287 288 289 289 291 294 297 300 303 304 305 306 305 304 303 300 297 296 298 301 306 309 309 307 306 307 306 303 302 304 305 307 309 312 317 321 322 324 326 329 331 332 333 335 338 340 342 343 344 344 345 346 348 348 349 350 351 352
270 271 273 275 276 277 277 278 278 278 279 280 281 281 280 280 279 277 275 274 274 277 279 281 283 284 285 287 288 290 292 293 296 298 301 303 304 304 304 303 303 303 300 296 295 298 303 307 310 310 308 306 305 303 300 300 302 303 305 309 313 316 317 319 323 327 329 329 331 333 336 338 340 341 342 344 345 345 347 348 348 350 350 351 353
273 274 275 277 278 278 278 278 277 278 278 278 278 278 278 277 276 275 274 275 276 278 280 280 281 282 284 287 290 291 293 294 296 299 301 303 303 303 303 303 304 303 300 295 293 297 304 308 310 311 310 306 303 301 299 299 300 301 304 308 310 312 314 319 324 327 327 329 331 333 336 338 339 341 342 344 345 347 348 348 349 351 351 351 353
275 275 276 277 278 278 278 278 278 278 278 277 275 273 273 274 274 274 275 276 276 277 279 280 281 283 285 288 290 291 292 294 297 299 301 302 302 302 302 302 302 301 298 294 292 295 302 307 310 311 310 306 303 299 298 298 298 299 302 306 309 311 314 319 323 326 328 329 330 332 335 337 339 341 342 343 345 348 348 347 349 352 352 352 353
278 278 278 278 277 277 276 276 276 276 276 275 273 271 271 272 274 274 275 275 275 277 279 281 283 285 287 288 289 289 291 294 297 299 300 300 300 301 301 301 300 299 296 293 292 294 300 304 307 308 307 305 301 297 295 295 295 296 300 303 307 310 314 318 323 326 328 328 329 331 333 336 338 340 341 342 345 347 348 347 350 352 353 353 354
281 279 277 276 276 275 272 272 273 275 275 273 272 271 272 273 274 274 275 275 276 279 281 282 284 286 286 287 288 289 292 295 297 298 299 299 299 300 300 298 297 296 295 294 294 295 299 301 303 305 305 303 298 294 292 293 293 295 299 302 305 308 313 318 322 325 326 327 328 330 332 335 338 339 340 342 344 346 348 349 350 352 353 354 355
278 276 273 273 276 277 275 273 273 274 274 271 270 270 271 272 273 274 275 276 278 280 281 283 284 284 284 286 288 290 293 295 296 297 297 298 298 298 298 296 295 294 295 296 296 296 297 300 303 304 303 299 293 289 288 290 291 293 296 299 302 305 311 316 320 323 325 325 326 328 330 333 336 338 340 342 343 345 347 349 350 351 353 354 355
272 273 274 275 277 279 278 276 273 273 272 271 270 270 271 272 274 275 276 278 279 280 281 282 282 282 283 286 289 291 293 294 295 296 297 297 297 297 295 293 292 291 290 291 292 291 294 298 302 302 300 295 289 285 285 287 288 290 292 295 298 302 308 313 317 321 323 324 325 326 329 332 335 338 340 341 342 345 347 348 349 351 353 353 355
270 273 275 276 276 276 275 274 273 272 272 271 271 271 272 273 274 275 277 278 279 279 279 279 280 281 284 287 289 291 292 293 294 295 296 296 295 294 292 291 290 288 285 284 285 287 292 297 299 298 297 293 285 280 282 284 285 287 289 291 294 300 306 311 316 319 321 323 324 326 328 331 334 336 339 341 342 344 346 346 348 351 352 353 355
271 273 274 274 274 274 273 272 272 272 272 272 272 272 273 274 275 275 276 277 277 277 277 278 280 282 284 287 289 290 291 292 293 293 293 294 294 293 291 290 289 288 285 282 281 284 290 294 295 296 296 291 282 276 278 281 282 284 286 288 292 298 304 310 314 318 320 323 324 325 327 330 333 336 338 340 342 343 344 345 348 349 350 352 355
271 272 272 273 272 271 271 271 271 272 272 272 272 273 274 275 275 275 276 276 276 276 276 277 280 282 284 287 289 290 290 290 291 292 293 293 293 292 291 290 289 287 284 280 278 284 290 292 293 295 295 289 278 273 275 278 280 282 284 286 290 295 302 308 312 316 319 321 323 324 326 329 332 335 336 337 339 341 343 346 347 348 348 351 354
269 269 270 270 270 269 269 269 270 270 271 272 272 274 275 275 275 274 274 274 275 275 276 278 280 282 284 286 288 288 288 289 290 291 292 292 292 291 290 289 287 286 283 277 276 283 290 291 290 292 294 287 275 271 273 275 278 281 283 285 288 293 299 306 311 314 318 320 322 324 325 327 329 331 333 336 338 341 343 345 346 346 347 350 352
267 268 268 268 268 268 267 268 269 269 270 271 271 271 272 272 272 272 272 272 274 275 277 279 281 283 285 286 287 288 288 289 290 290 290 290 289 288 288 288 287 286 284 279 276 280 285 285 285 288 289 281 270 268 271 273 276 279 281 284 286 291 297 303 308 312 316 318 319 320 321 322 326 329 332 336 338 340 342 344 344 345 346 348 348
265 266 266 266 267 267 268 269 270 270 270 270 269 268 268 269 269 270 271 273 275 277 279 281 282 283 285 286 287 288 290 289 289 288 288 287 287 288 290 289 288 286 283 277 273 275 277 278 280 285 284 275 266 266 269 271 274 278 280 282 285 288 293 299 304 308 312 314 315 317 319 322 326 329 331 334 336 338 340 342 343 345 346 345 345
262 264 265 266 267 268 269 270 271 271 271 269 268 267 267 267 269 270 273 275 277 278 279 280 281 283 284 285 287 288 288 287 287 287 288 289 290 290 290 290 288 287 283 275 270 270 272 274 277 281 278 269 262 263 267 269 272 276 279 281 284 286 290 296 301 305 309 312 314 317 319 321 324 327 329 332 334 336 338 340 342 343 343 343 343
261 263 265 266 267 268 269 271 272 271 271 270 269 268 267 268 270 272 273 275 276 277 278 280 281 283 285 286 287 287 285 285 286 289 290 292 292 291 291 291 291 289 285 277 270 269 270 271 274 277 273 263 257 259 264 267 270 274 277 280 283 285 288 293 298 302 306 309 312 315 317 319 322 324 327 330 332 334 336 339 340 341 341 342 343
262 263 265 266 268 270 271 271 270 270 271 271 270 267 265 266 268 270 272 274 276 277 278 280 282 284 285 286 286 285 284 285 288 290 291 292 291 290 289 289 287 286 284 278 273 271 271 272 274 275 268 258 254 256 261 265 269 272 276 279 281 284 287 290 294 299 303 306 309 311 314 318 320 322 325 328 331 332 334 336 338 339 340 341 342
263 264 265 267 269 269 268 266 267 269 270 268 265 262 261 263 267 270 273 275 276 277 278 280 283 285 286 285 284 283 284 285 288 289 290 290 288 284 282 281 279 278 277 275 273 272 272 273 274 271 261 253 252 255 259 263 267 270 274 277 280 282 285 288 292 296 300 303 306 309 312 315 318 320 323 326 328 330 332 333 336 338 338 339 340
265 266 266 267 267 265 263 263 265 267 266 263 262 263 265 268 271 274 275 277 278 279 280 282 284 286 286 284 283 283 283 285 286 286 286 285 284 281 280 279 277 275 273 273 274 274 273 273 272 266 255 249 250 253 257 262 265 269 273 276 278 280 283 286 290 294 297 301 304 307 310 313 316 318 321 323 325 328 330 332 333 335 336 337 337
264 265 265 264 263 262 262 263 263 263 263 263 266 269 271 273 275 276 277 279 280 281 282 284 285 285 284 282 281 282 283 283 283 282 283 284 284 282 282 281 281 280 278 276 275 275 274 273 269 261 251 247 248 252 256 260 264 268 271 275 277 279 281 283 287 292 295 298 301 305 309 312 314 316 319 321 323 325 327 329 330 332 333 334 335
263 263 263 262 261 261 262 262 262 263 264 266 268 271 273 275 276 277 278 279 280 281 282 283 283 283 283 283 283 283 284 284 281 280 282 284 285 284 283 281 282 285 285 282 278 276 274 271 265 255 246 244 247 251 255 259 263 267 270 273 275 277 279 282 285 289 293 296 299 303 307 310 312 315 318 320 321 323 325 327 328 329 330 332 333
262 262 261 261 261 262 262 263 264 265 266 267 270 272 274 275 276 277 278 279 279 279 279 281 283 284 285 286 286 286 286 285 281 279 281 282 282 283 284 283 283 285 286 284 281 277 272 266 259 249 241 241 246 251 255 259 262 266 270 272 274 276 278 281 284 287 290 294 298 302 305 308 310 313 315 317 318 320 322 324 325 326 328 329 330
261 261 261 262 263 264 264 265 266 267 268 269 271 272 274 275 276 277 277 275 274 275 278 281 284 286 288 289 289 287 285 283 280 278 280 280 278 279 284 287 287 286 285 283 280 277 271 263 253 244 239 241 246 250 254 258 262 266 269 272 274 276 278 281 283 286 289 292 295 300 303 306 308 311 313 315 316 317 319 321 322 323 324 326 327
260 261 261 262 264 265 266 268 268 269 269 271 272 273 274 274 273 272 272 272 275 278 281 283 285 287 289 291 290 287 284 281 279 279 281 281 279 279 283 286 286 287 286 283 280 277 272 263 251 242 239 242 246 249 253 258 261 265 268 270 272 275 277 280 282 285 288 291 295 298 301 303 306 309 311 312 313 315 317 318 319 321 322 323 324
261 262 263 264 265 267 267 267 268 268 270 271 272 271 271 270 270 271 274 278 282 284 286 288 290 291 292 293 292 288 283 280 279 279 281 282 282 283 286 287 286 286 286 284 280 276 272 265 253 242 240 244 247 250 254 257 260 263 267 269 271 274 276 279 282 285 288 292 295 298 300 302 304 306 308 310 311 313 315 316 317 319 320 320 321
262 263 264 265 266 267 267 267 267 268 269 268 267 266 267 269 272 274 278 281 284 286 288 290 292 293 293 293 291 288 283 280 279 278 279 281 282 285 287 289 288 285 283 283 279 274 269 262 251 242 242 246 249 251 253 256 259 262 265 267 270 273 275 278 282 285 288 291 294 296 298 300 302 305 306 308 309 311 313 314 315 316 317 317 317
262 262 262 261 261 263 265 266 267 266 265 264 264 266 268 271 274 277 280 282 285 287 289 290 291 292 292 291 290 288 285 282 281 280 280 281 282 284 286 288 287 284 282 281 279 274 269 260 248 241 242 247 249 251 253 255 258 262 264 266 269 272 275 278 281 284 288 291 293 294 296 298 301 304 305 307 308 310 311 311 312 313 313 314 314
Height
5789 5789 5789 5789 5789 5789 5789 5789 5789 5790 5790 5790 5791 5792 5793 5793 5793 5793 5793 5794 5794 5794 5794 5794 5794 5794 5793 5793 5792 5792 5791 5790 5790 5789 5788 5787 5786 5785 5783 5782 5780 5779 5777 5775 5773 5771 5768 5766 5763 5761 5758 5756 5753 5750 5748 5745 5742 5739 5736 5732 5728 5725 5721 5717 5713 5709 5706 5703 5700 5696 5692 5688 5684 5680 5676 5672 5668 5665 5661 5658 5654 5650 5646 5641 5637
5786 5786 5787 5787 5787 5787 5787 5787 5787 5787 5788 5788 5789 5790 5791 5791 5791 5791 5792 5792 5792 5792 5792 5791 5791 5791 5791 5790 5789 5789 5788 5788 5787 5786 5785 5784 5783 5781 5780 5778 5777 5775 5773 5771 5769 5767 5765 5762 5759 5757 5755 5752 5750 5747 5744 5741 5738 5735 5732 5728 5725 5721 5718 5714 5710 5706 5702 5699 5696 5692 5688 5684 5680 5676 5672 5668 5664 5661 5658 5654 5650 5646 5641 5636 5632
5783 5784 5784 5784 5784 5784 5784 5785 5785 5785 5785 5786 5786 5787 5788 5789 5789 5789 5789 5789 5789 5789 5789 5789 5789 5788 5788 5787 5786 5786 5785 5785 5784 5783 5782 5781 5779 5778 5776 5775 5773 5772 5770 5768 5765 5763 5761 5758 5756 5753 5751 5748 5746 5743 5740 5738 5735 5732 5728 5725 5721 5717 5714 5710 5706 5703 5699 5695 5691 5688 5684 5680 5676 5672 5668 5664 5661 5657 5654 5650 5646 5641 5636 5632 5627
5780 5781 5781 5781 5781 5781 5781 5782 5782 5783 5783 5784 5784 5785 5786 5787 5787 5787 5787 5787 5787 5787 5787 5787 5786 5786 5785 5784 5784 5783 5782 5782 5781 5780 5778 5777 5776 5775 5773 5771 5770 5768 5766 5764 5762 5760 5757 5755 5752 5749 5747 5744 5742 5739 5737 5734 5731 5728 5724 5720 5717 5713 5709 5706 5702 5699 5696 5692 5688 5684 5680 5676 5673 5668 5665 5661 5657 5654 5650 5647 5642 5637 5632 5626 5622
5777 5778 5778 5778 5778 5778 5779 5780 5780 5781 5781 5781 5782 5783 5784 5784 5784 5784 5785 5785 5785 5785 5784 5784 5783 5783 5782 5781 5781 5780 5779 5778 5777 5776 5775 5774 5773 5771 5770 5768 5766 5764 5762 5760 5758 5756 5753 5751 5748 5746 5743 5740 5738 5735 5733 5730 5727 5724 5720 5716 5713 5709 5705 5702 5698 5695 5692 5688 5684 5680 5676 5673 5669 5665 5661 5658 5655 5651 5647 5643 5638 5634 5628 5622 5616
5774 5775 5775 5776 5776 5776 5777 5777 5778 5778 5779 5779 5780 5781 5781 5782 5782 5782 5782 5782 5782 5782 5781 5781 5780 5780 5779 5778 5778 5777 5776 5775 5774 5773 5771 5770 5769 5768 5766 5764 5762 5760 5758 5756 5754 5752 5749 5747 5744 5742 5739 5736 5734 5731 5728 5726 5723 5720 5716 5712 5709 5705 5701 5697 5694 5691 5688 5684 5680 5677 5673 5669 5665 5662 5658 5655 5651 5647 5644 5640 5634 5629 5624 5619 5612
5772 5772 5773 5773 5773 5774 5775 5775 5775 5776 5776 5777 5778 5778 5779 5779 5779 5779 5779 5779 5779 5778 5778 5778 5777 5776 5776 5775 5774 5773 5772 5771 5770 5769 5768 5767 5765 5764 5762 5760 5758 5757 5755 5752 5750 5748 5745 5743 5740 5738 5735 5732 5729 5727 5724 5722 5719 5716 5712 5708 5705 5701 5697 5693 5690 5687 5684 5681 5677 5673 5669 5665 5662 5659 5655 5651 5648 5643 5640 5637 5632 5625 5619 5613 5608
5769 5769 5770 5771 5771 5771 5772 5773 5773 5774 5774 5774 5775 5776 5776 5776 5776 5776 5776 5776 5776 5775 5775 5774 5773 5773 5772 5771 5770 5769 5768 5767 5766 5765 5764 5763 5761 5760 5758 5756 5755 5753 5751 5748 5746 5744 5741 5739 5736 5734 5731 5728 5725 5723 5720 5718 5715 5711 5708 5704 5701 5697 5694 5690 5687 5684 5680 5677 5674 5670 5666 5662 5659 5656 5652 5648 5645 5640 5635 5631 5627 5622 5616 5609 5602
5766 5767 5768 5768 5768 5769 5770 5770 5771 5771 5771 5772 5772 5773 5773 5774 5774 5774 5774 5774 5773 5772 5772 5771 5770 5769 5768 5767 5766 5765 5764 5762 5761 5760 5760 5759 5757 5756 5754 5752 5751 5749 5747 5744 5742 5740 5737 5735 5732 5730 5727 5724 5721 5719 5716 5714 5711 5707 5704 5700 5697 5694 5690 5687 5684 5681 5677 5674 5670 5667 5663 5659 5655 5652 5649 5645 5641 5637 5632 5627 5622 5617 5612 5605 5598
5764 5765 5765 5765 5766 5767 5767 5768 5768 5768 5769 5770 5770 5770 5770 5771 5771 5771 5771 5771 5770 5769 5768 5767 5766 5766 5765 5764 5763 5762 5760 5757 5756 5756 5756 5755 5754 5752 5750 5749 5747 5745 5743 5740 5738 5736 5734 5731 5728 5725 5723 5720 5718 5715 5713 5710 5707 5703 5700 5697 5693 5690 5687 5684 5681 5678 5674 5671 5667 5663 5660 5656 5652 5649 5645 5642 5637 5632 5628 5623 5618 5613 5607 5601 5595
5761 5762 5762 5763 5763 5764 5765 5765 5765 5766 5766 5767 5767 5767 5767 5767 5768 5768 5767 5767 5766 5766 5765 5764 5763 5763 5762 5761 5760 5758 5756 5754 5753 5753 5752 5751 5750 5748 5746 5745 5743 5741 5738 5736 5734 5732 5729 5726 5724 5721 5719 5716 5714 5711 5709 5706 5703 5700 5697 5693 5690 5687 5685 5682 5678 5675 5672 5668 5663 5660 5656 5653 5649 5646 5642 5638 5634 5630 5625 5619 5614 5608 5602 5596 5591
5759 5759 5760 5760 5761 5762 5762 5762 5762 5763 5764 5764 5764 5764 5763 5763 5764 5764 5763 5763 5763 5763 5763 5761 5760 5759 5758 5758 5756 5754 5753 5752 5751 5749 5748 5747 5745 5744 5742 5740 5738 5736 5734 5732 5730 5728 5725 5722 5720 5717 5715 5713 5710 5708 5705 5702 5699 5696 5694 5691 5687 5684 5682 5679 5675 5672 5669 5665 5660 5657 5653 5650 5646 5643 5639 5636 5631 5627 5621 5615 5609 5603 5597 5592 5587
5756 5757 5757 5758 5758 5759 5759 5759 5760 5760 5761 5761 5761 5761 5760 5761 5761 5761 5760 5760 5760 5760 5759 5758 5757 5756 5755 5754 5752 5750 5749 5748 5747 5745 5744 5743 5741 5740 5738 5736 5734 5732 5730 5728 5726 5723 5721 5718 5716 5714 5711 5709 5707 5704 5701 5698 5696 5693 5690 5688 5685 5682 5679 5675 5672 5669 5665 5662 5658 5654 5651 5647 5644 5640 5636 5632 5628 5623 5618 5612 5606 5600 5594 5589 5582
5753 5754 5755 5755 5756 5756 5756 5757 5757 5758 5758 5757 5757 5758 5758 5758 5758 5757 5757 5757 5756 5756 5756 5755 5754 5753 5752 5751 5749 5747 5746 5744 5743 5742 5740 5739 5737 5736 5734 5732 5730 5728 5726 5724 5722 5719 5717 5715 5712 5710 5708 5705 5703 5700 5698 5695 5692 5690 5687 5685 5682 5679 5676 5673 5670 5666 5662 5659 5655 5652 5648 5645 5641 5638 5633 5629 5624 5619 5614 5609 5603 5598 5592 5586 5579
5750 5751 5752 5752 5752 5753 5753 5753 5754 5754 5754 5754 5754 5755 5755 5755 5755 5754 5754 5753 5753 5753 5752 5751 5750 5749 5748 5747 5746 5744 5743 5741 5740 5738 5737 5735 5733 5732 5730 5728 5726 5724 5722 5720 5717 5715 5713 5711 5709 5706 5704 5702 5699 5697 5694 5691 5689 5686 5684 5681 5678 5676 5673 5669 5666 5663 5659 5655 5652 5649 5646 5642 5639 5634 5630 5625 5620 5615 5610 5605 5600 5595 5589 5583 5576
5747 5748 5748 5749 5749 5749 5749 5750 5751 5751 5751 5751 5751 5752 5751 5752 5752 5751 5750 5750 5749 5748 5747 5747 5746 5745 5744 5743 5742 5740 5739 5737 5736 5734 5733 5731 5729 5728 5726 5724 5722 5720 5718 5716 5713 5711 5709 5707 5705 5703 5701 5698 5696 5693 5690 5688 5685 5683 5680 5678 5675 5672 5669 5666 5663 5660 5657 5653 5650 5647 5644 5640 5636 5631 5627 5623 5618 5614 5608 5603 5597 5592 5586 5579 5573
5744 5744 5744 5745 5745 5746 5746 5747 5747 5747 5747 5747 5748 5748 5748 5748 5748 5747 5746 5746 5745 5744 5743 5742 5741 5740 5739 5738 5737 5736 5735 5733 5732 5730 5729 5727 5725 5724 5722 5721 5718 5716 5714 5712 5709 5707 5705 5703 5701 5699 5697 5695 5692 5689 5687 5684 5682 5679 5677 5675 5672 5669 5667 5664 5661 5658 5655 5652 5649 5645 5642 5638 5634 5630 5626 5621 5616 5611 5606 5600 5595 5589 5583 5577 5570
5740 5740 5741 5741 5742 5742 5743 5743 5744 5744 5744 5744 5745 5745 5744 5744 5744 5743 5742 5742 5741 5740 5739 5738 5737 5736 5734 5733 5733 5732 5731 5729 5728 5726 5725 5724 5722 5720 5719 5717 5714 5712 5710 5708 5706 5704 5702 5700 5698 5696 5693 5691 5689 5686 5683 5681 5679 5677 5675 5672 5670 5667 5665 5662 5660 5656 5653 5651 5647 5644 5641 5638 5634 5630 5625 5619 5614 5608 5603 5597 5592 5586 5580 5574 5568
5737 5737 5738 5738 5738 5739 5739 5740 5740 5740 5740 5741 5741 5741 5741 5740 5740 5739 5738 5737 5736 5736 5735 5734 5733 5732 5731 5730 5729 5728 5726 5725 5724 5722 5721 5720 5718 5716 5715 5713 5711 5709 5706 5704 5702 5700 5699 5697 5695 5692 5690 5688 5685 5683 5680 5678 5676 5674 5672 5670 5668 5665 5663 5661 5658 5655 5652 5649 5646 5643 5640 5637 5633 5628 5623 5617 5611 5606 5600 5594 5588 5583 5578 5572 5566
5733 5734 5735 5735 5736 5736 5736 5737 5737 5737 5737 5737 5737 5737 5737 5736 5736 5735 5734 5733 5733 5732 5731 5730 5728 5728 5727 5726 5725 5724 5722 5721 5720 5719 5718 5716 5714 5713 5711 5709 5707 5704 5702 5701 5699 5697 5695 5693 5691 5689 5687 5684 5682 5680 5677 5676 5674 5672 5670 5668 5666 5664 5662 5659 5656 5653 5650 5647 5645 5642 5638 5634 5630 5625 5620 5615 5610 5604 5598 5592 5586 5581 5576 5571 5565
5731 5732 5732 5732 5733 5733 5733 5733 5733 5733 5733 5733 5733 5733 5733 5732 5732 5731 5730 5729 5729 5728 5727 5726 5724 5724 5723 5722 5721 5720 5719 5717 5716 5715 5714 5712 5711 5709 5707 5705 5703 5701 5699 5697 5695 5694 5692 5690 5688 5686 5683 5681 5678 5676 5674 5673 5671 5669 5668 5666 5664 5662 5660 5657 5654 5651 5648 5645 5643 5640 5636 5632 5628 5623 5619 5614 5608 5602 5597 5591 5585 5579 5574 5568 5563
5728 5728 5729 5729 5730 5730 5730 5730 5730 5730 5730 5729 5729 5729 5728 5728 5728 5727 5726 5726 5725 5724 5723 5721 5720 5719 5719 5718 5718 5717 5715 5713 5712 5711 5710 5709 5707 5705 5703 5701 5699 5697 5695 5693 5692 5690 5689 5687 5685 5682 5680 5677 5675 5673 5672 5670 5669 5667 5666 5664 5662 5660 5658 5655 5652 5649 5646 5644 5641 5637 5634 5630 5626 5622 5617 5612 5607 5601 5596 5591 5585 5578 5572 5566 5561
5724 5724 5725 5725 5726 5726 5726 5726 5726 5725 5725 5725 5724 5724 5724 5723 5723 5723 5722 5721 5720 5720 5719 5718 5716 5715 5715 5715 5714 5713 5712 5710 5709 5708 5706 5705 5703 5701 5699 5697 5695 5694 5691 5690 5688 5687 5685 5683 5681 5679 5677 5674 5672 5671 5669 5668 5667 5665 5664 5662 5660 5658 5656 5653 5650 5647 5645 5642 5639 5635 5632 5628 5624 5620 5616 5611 5606 5601 5596 5590 5584 5577 5572 5566 5560
5720 5721 5721 5721 5721 5722 5722 5722 5721 5721 5720 5720 5720 5719 5719 5718 5719 5719 5718 5716 5715 5715 5715 5713 5712 5712 5711 5710 5710 5709 5708 5707 5705 5704 5703 5701 5699 5697 5695 5693 5692 5690 5688 5686 5685 5683 5682 5680 5678 5676 5673 5671 5669 5668 5667 5666 5664 5663 5662 5660 5658 5656 5654 5651 5648 5646 5643 5640 5637 5633 5630 5626 5622 5618 5614 5610 5605 5600 5595 5589 5583 5577 5572 5566 5560
5716 5717 5717 5717 5717 5717 5717 5717 5716 5716 5715 5715 5715 5715 5714 5713 5714 5714 5713 5712 5711 5710 5710 5709 5708 5707 5707 5706 5705 5704 5704 5703 5701 5700 5698 5697 5695 5693 5691 5689 5688 5686 5684 5682 5681 5680 5678 5677 5675 5672 5670 5668 5667 5666 5664 5663 5662 5661 5660 5658 5656 5653 5651 5649 5647 5644 5641 5638 5635 5632 5628 5625 5621 5617 5613 5609 5604 5599 5594 5589 5583 5578 5572 5567 5561
5712 5712 5712 5712 5712 5712 5712 5712 5711 5711 5711 5710 5710 5710 5709 5709 5709 5708 5707 5707 5706 5706 5705 5705 5704 5703 5702 5701 5701 5700 5699 5698 5697 5696 5694 5693 5691 5689 5687 5685 5684 5682 5680 5679 5678 5676 5675 5673 5671 5669 5667 5665 5664 5663 5662 5661 5660 5659 5657 5656 5653 5651 5650 5648 5645 5642 5639 5636 5633 5630 5627 5623 5619 5615 5612 5608 5603 5598 5593 5589 5584 5579 5573 5568 5563
5707 5708 5708 5708 5707 5707 5707 5707 5707 5706 5706 5706 5705 5705 5704 5704 5704 5703 5702 5702 5702 5701 5701 5700 5699 5698 5698 5697 5697 5696 5695 5694 5693 5692 5690 5688 5687 5685 5683 5681 5680 5678 5677 5675 5674 5673 5671 5670 5668 5666 5664 5662 5661 5660 5659 5658 5657 5656 5655 5653 5652 5650 5648 5646 5643 5640 5638 5635 5631 5628 5625 5622 5618 5614 5610 5607 5602 5597 5593 5588 5584 5579 5574 5569 5564
5703 5703 5703 5703 5703 5703 5702 5702 5702 5702 5701 5701 5701 5700 5699 5699 5699 5699 5698 5698 5697 5696 5696 5695 5695 5694 5694 5693 5693 5692 5691 5690 5689 5687 5686 5684 5682 5681 5679 5678 5676 5675 5673 5672 5671 5669 5668 5666 5665 5663 5661 5659 5658 5657 5656 5656 5655 5654 5652 5651 5649 5647 5645 5643 5641 5638 5636 5633 5630 5627 5624 5620 5617 5613 5609 5605 5601 5597 5592 5588 5583 5579 5574 5569 5564
5699 5699 5699 5699 5698 5698 5698 5698 5697 5697 5697 5696 5696 5695 5695 5694 5694 5694 5694 5694 5693 5692 5692 5691 5691 5690 5690 5689 5689 5688 5687 5686 5684 5683 5681 5680 5678 5677 5675 5674 5672 5671 5669 5668 5667 5666 5665 5663 5661 5659 5658 5656 5655 5654 5653 5653 5652 5651 5650 5648 5647 5645 5643 5641 5639 5636 5634 5631 5628 5625 5622 5619 5616 5612 5609 5604 5600 5597 5592 5588 5583 5579 5574 5569 5564
5694 5694 5694 5694 5693 5693 5693 5693 5693 5693 5692 5692 5691 5691 5690 5690 5690 5690 5690 5689 5688 5688 5688 5687 5686 5686 5686 5685 5685 5683 5682 5681 5680 5678 5677 5675 5674 5673 5671 5670 5668 5667 5666 5664 5664 5662 5661 5659 5658 5656 5655 5653 5652 5651 5650 5650 5649 5648 5647 5646 5644 5643 5641 5639 5637 5635 5632 5630 5627 5624 5621 5618 5615 5612 5608 5604 5600 5596 5592 5588 5583 5578 5574 5569 5565
5689 5689 5689 5689 5689 5688 5688 5688 5688 5688 5687 5687 5687 5686 5686 5686 5686 5686 5685 5685 5684 5684 5683 5683 5682 5682 5681 5680 5680 5679 5678 5677 5675 5673 5672 5671 5669 5668 5667 5665 5664 5663 5662 5661 5660 5658 5657 5656 5654 5653 5651 5650 5649 5648 5648 5647 5647 5645 5644 5643 5642 5641 5639 5637 5635 5633 5631 5628 5625 5623 5620 5617 5614 5611 5607 5603 5599 5595 5591 5587 5583 5578 5574 5569 5565
5684 5684 5684 5684 5684 5684 5684 5684 5684 5683 5683 5683 5682 5682 5682 5682 5682 5682 5681 5681 5680 5680 5679 5679 5678 5677 5676 5676 5676 5675 5673 5672 5671 5669 5667 5666 5665 5664 5663 5661 5660 5659 5658 5657 5656 5654 5653 5652 5651 5649 5648 5647 5646 5645 5645 5644 5644 5643 5642 5641 5640 5638 5637 5635 5633 5631 5629 5626 5624 5621 5618 5616 5613 5609 5606 5602 5598 5594 5590 5587 5583 5579 5574 5570 5565
5679 5680 5680 5679 5679 5679 5679 5679 5679 5678 5678 5678 5678 5678 5678 5678 5677 5677 5677 5676 5676 5675 5675 5674 5674 5673 5672 5671 5671 5670 5669 5667 5666 5665 5663 5661 5660 5659 5658 5657 5656 5655 5654 5653 5652 5651 5650 5649 5647 5645 5644 5643 5643 5642 5641 5641 5641 5640 5639 5638 5637 5636 5635 5633 5631 5629 5627 5624 5622 5619 5616 5614 5611 5608 5605 5601 5597 5593 5590 5586 5583 5579 5575 5570 5566
5675 5675 5675 5675 5675 5675 5675 5674 5674 5674 5674 5674 5674 5673 5673 5673 5673 5673 5672 5672 5671 5671 5670 5670 5669 5668 5667 5666 5666 5666 5664 5662 5662 5660 5658 5657 5656 5655 5654 5653 5652 5651 5650 5649 5648 5647 5646 5645 5643 5642 5641 5640 5639 5639 5638 5638 5638 5637 5637 5636 5635 5634 5632 5631 5629 5627 5625 5622 5620 5617 5615 5612 5609 5606 5603 5600 5597 5593 5589 5586 5582 5578 5575 5571 5567
5671 5671 5670 5670 5670 5670 5670 5670 5670 5669 5669 5669 5669 5668 5668 5668 5668 5668 5668 5667 5667 5667 5666 5665 5665 5663 5662 5662 5662 5661 5659 5658 5657 5656 5654 5653 5652 5651 5650 5649 5647 5646 5645 5645 5644 5643 5642 5641 5639 5638 5637 5636 5636 5635 5635 5635 5635 5634 5634 5633 5632 5631 5630 5628 5626 5625 5623 5620 5618 5615 5613 5611 5608 5605 5602 5600 5596 5593 5589 5585 5581 5578 5575 5571 5567
5666 5666 5666 5666 5666 5665 5665 5665 5665 5665 5665 5665 5664 5664 5664 5664 5664 5664 5663 5663 5662 5662 5662 5661 5660 5659 5658 5657 5657 5656 5654 5653 5652 5651 5650 5649 5648 5646 5645 5644 5643 5642 5641 5641 5640 5639 5638 5636 5635 5634 5633 5633 5632 5632 5632 5632 5631 5631 5631 5630 5629 5628 5627 5625 5624 5622 5620 5618 5616 5613 5611 5609 5607 5604 5602 5599 5595 5592 5588 5584 5581 5578 5574 5571 5568
5661 5661 5661 5661 5661 5661 5660 5661 5660 5660 5660 5660 5660 5660 5659 5659 5659 5659 5659 5658 5658 5657 5657 5656 5655 5654 5653 5652 5651 5650 5649 5648 5647 5646 5645 5644 5643 5642 5640 5639 5638 5637 5636 5636 5636 5634 5633 5632 5631 5630 5629 5629 5628 5628 5628 5628 5628 5628 5628 5627 5626 5625 5624 5623 5621 5620 5618 5616 5614 5612 5610 5608 5605 5602 5600 5597 5594 5591 5587 5584 5581 5577 5573 5570 5568
5655 5655 5655 5656 5656 5655 5655 5656 5656 5656 5656 5655 5655 5655 5655 5655 5654 5654 5654 5654 5653 5653 5652 5651 5651 5650 5649 5647 5646 5645 5645 5643 5642 5641 5640 5639 5638 5637 5635 5634 5633 5633 5632 5632 5631 5629 5628 5627 5626 5626 5625 5625 5624 5624 5625 5625 5625 5625 5625 5624 5623 5622 5621 5620 5619 5617 5615 5614 5612 5609 5607 5605 5603 5600 5598 5595 5592 5590 5586 5583 5580 5576 5573 5570 5567
5650 5650 5650 5650 5650 5650 5651 5651 5651 5651 5651 5651 5650 5650 5650 5650 5650 5649 5649 5649 5649 5648 5647 5646 5646 5645 5644 5642 5641 5641 5639 5638 5637 5636 5635 5634 5633 5631 5630 5629 5628 5628 5627 5627 5626 5624 5623 5622 5622 5621 5621 5620 5620 5620 5621 5621 5621 5621 5621 5621 5620 5619 5618 5617 5616 5614 5613 5611 5609 5607 5605 5603 5601 5599 5596 5593 5591 5588 5585 5582 5579 5576 5573 5570 5567
5645 5645 5645 5645 5645 5645 5646 5646 5646 5646 5646 5646 5646 5646 5645 5645 5645 5645 5644 5644 5644 5643 5641 5640 5640 5640 5639 5637 5636 5636 5634 5633 5632 5632 5630 5629 5628 5626 5625 5624 5623 5623 5622 5621 5620 5619 5619 5618 5617 5617 5616 5616 5616 5616 5617 5617 5617 5617 5617 5617 5616 5616 5615 5614 5613 5611 5610 5608 5606 5604 5602 5601 5599 5597 5594 5592 5589 5586 5584 5581 5578 5575 5572 5569 5566
5640 5640 5640 5641 5641 5641 5641 5641 5641 5641 5641 5641 5640 5640 5640 5640 5640 5640 5639 5639 5638 5637 5636 5635 5635 5635 5634 5633 5631 5630 5629 5628 5628 5627 5625 5624 5622 5621 5620 5619 5618 5618 5617 5616 5615 5614 5614 5613 5612 5612 5611 5611 5612 5612 5612 5613 5613 5614 5614 5613 5613 5612 5611 5610 5609 5608 5607 5605 5604 5602 5600 5598 5596 5594 5592 5589 5587 5585 5582 5579 5577 5574 5571 5568 5565
5635 5635 5636 5636 5637 5637 5637 5637 5637 5637 5636 5636 5635 5635 5635 5635 5635 5635 5634 5634 5633 5632 5631 5630 5630 5630 5629 5628 5626 5625 5624 5623 5622 5621 5620 5619 5617 5616 5615 5614 5613 5613 5612 5611 5610 5609 5609 5608 5608 5607 5607 5607 5607 5608 5608 5609 5609 5610 5610 5610 5609 5609 5608 5606 5605 5604 5603 5602 5601 5599 5598 5596 5594 5592 5589 5587 5585 5583 5580 5578 5575 5572 5570 5567 5564
5630 5630 5631 5632 5632 5632 5632 5632 5632 5632 5632 5631 5631 5631 5631 5631 5630 5630 5629 5628 5628 5627 5626 5625 5625 5624 5624 5622 5621 5619 5618 5618 5617 5615 5614 5613 5612 5611 5610 5609 5608 5607 5606 5605 5604 5604 5604 5604 5603 5602 5602 5602 5603 5604 5604 5605 5605 5606 5606 5606 5605 5605 5604 5603 5602 5601 5600 5599 5597 5596 5595 5593 5591 5589 5587 5585 5583 5581 5578 5576 5573 5571 5568 5566 5563
5625 5625 5626 5627 5627 5627 5627 5627 5627 5627 5627 5627 5626 5626 5626 5626 5625 5625 5624 5623 5623 5622 5621 5620 5619 5618 5618 5617 5615 5614 5613 5612 5611 5610 5609 5608 5607 5606 5605 5604 5602 5601 5600 5600 5599 5599 5599 5599 5598 5597 5597 5598 5599 5599 5600 5601 5601 5601 5602 5602 5601 5601 5600 5599 5598 5597 5596 5595 5594 5593 5591 5590 5588 5586 5584 5582 5580 5578 5576 5574 5572 5569 5567 5564 5562
5620 5621 5621 5622 5622 5622 5622 5622 5622 5622 5622 5622 5622 5622 5621 5621 5620 5620 5619 5618 5618 5617 5615 5614 5614 5613 5612 5611 5610 5608 5607 5607 5606 5605 5604 5603 5602 5601 5600 5599 5598 5597 5596 5595 5594 5594 5594 5593 5593 5593 5593 5593 5594 5595 5596 5596 5597 5597 5597 5597 5597 5597 5596 5595 5595 5594 5593 5592 5591 5589 5588 5587 5585 5583 5581 5579 5577 5575 5573 5571 5569 5567 5565 5563 5560
5616 5616 5617 5617 5617 5617 5617 5617 5617 5618 5618 5617 5617 5617 5616 5615 5615 5614 5614 5613 5613 5611 5610 5609 5609 5607 5606 5605 5604 5603 5602 5601 5600 5600 5599 5598 5597 5596 5595 5594 5593 5592 5591 5590 5590 5589 5588 5588 5588 5588 5589 5589 5590 5591 5591 5592 5593 5593 5593 5593 5593 5593 5592 5591 5591 5590 5590 5589 5588 5586 5584 5583 5582 5580 5578 5576 5574 5572 5570 5568 5566 5564 5562 5560 5558
5611 5612 5612 5612 5612 5612 5612 5612 5613 5613 5612 5612 5612 5611 5611 5610 5609 5609 5609 5608 5608 5607 5605 5604 5604 5602 5601 5600 5599 5597 5596 5596 5595 5594 5594 5593 5593 5592 5591 5590 5589 5588 5587 5586 5585 5584 5584 5583 5583 5583 5584 5585 5586 5586 5587 5588 5588 5589 5589 5589 5589 5589 5588 5587 5586 5586 5586 5585 5584 5583 5581 5580 5578 5576 5575 5573 5571 5570 5568 5566 5564 5562 5560 5558 5556
5606 5607 5607 5607 5607 5607 5607 5608 5608 5607 5607 5606 5606 5605 5605 5605 5605 5604 5603 5603 5602 5602 5601 5599 5599 5597 5596 5594 5593 5592 5591 5591 5590 5590 5589 5589 5588 5588 5587 5586 5585 5584 5583 5582 5581 5580 5580 5579 5579 5580 5580 5581 5582 5582 5583 5584 5584 5585 5585 5584 5584 5584 5584 5583 5582 5582 5582 5581 5580 5579 5578 5577 5575 5573 5571 5569 5568 5566 5565 5563 5561 5559 5557 5555 5553
5602 5602 5602 5602 5602 5602 5602 5602 5602 5602 5601 5601 5601 5600 5600 5601 5600 5599 5598 5598 5597 5597 5595 5594 5593 5592 5591 5589 5588 5587 5587 5586 5585 5585 5585 5585 5584 5583 5582 5581 5581 5580 5579 5578 5577 5576 5576 5576 5576 5576 5577 5578 5578 5579 5579 5580 5580 5580 5580 5580 5580 5580 5580 5579 5578 5578 5577 5577 5576 5575 5574 5573 5571 5569 5568 5566 5564 5563 5561 5559 5557 5555 5554 5552 5550
5597 5597 5597 5597 5597 5597 5596 5596 5596 5596 5596 5596 5596 5596 5596 5596 5595 5594 5593 5593 5592 5592 5591 5589 5588 5587 5586 5585 5584 5583 5582 5582 5581 5581 5581 5580 5580 5579 5578 5577 5576 5576 5575 5574 5573 5573 5572 5572 5572 5573 5574 5574 5575 5575 5575 5576 5576 5576 5576 5576 5576 5576 5575 5575 5574 5574 5573 5572 5572 5571 5569 5568 5567 5565 5564 5562 5561 5559 5557 5556 5554 5552 5550 5548 5546
5591 5591 5591 5592 5592 5592 5591 5591 5591 5591 5591 5591 5592 5591 5591 5591 5590 5589 5589 5588 5588 5587 5586 5585 5584 5583 5582 5580 5579 5579 5578 5578 5577 5577 5576 5576 5575 5575 5574 5573 5572 5572 5571 5570 5570 5569 5569 5568 5568 5569 5570 5570 5571 5571 5571 5571 5572 5571 5571 5571 5571 5571 5571 5571 5570 5570 5569 5568 5567 5566 5565 5564 5562 5561 5560 5558 5557 5555 5554 5552 5550 5548 5546 5545 5543